Location: Newark
(41.8922°N, 9.0050°E)
Time: 02:04:50
(UTC+00:00)

N. Korean satellite - Visible Passes

Search period start: 21 January 2020 00:00
Search period end: 31 January 2020 00:00
Orbit: 454 x 508 km, 97.2° (Epoch: 20 January)

Date Brightness Start Highest point End Pass type
(mag) Time Alt. Az. Time Alt. Az. Time Alt. Az.
21 Jan 9.6 04:21:31 10° NE 04:23:54 17° E 04:26:17 10° SE visible
21 Jan 7.4 05:54:14 10° NNW 05:57:18 28° WNW 06:00:24 10° SW visible
22 Jan 6.5 05:28:24 10° N 05:31:55 61° WNW 05:35:27 10° SSW visible
23 Jan 7.1 05:02:54 10° NNE 05:06:26 59° E 05:09:59 10° S visible
23 Jan 9.6 17:12:46 10° SW 17:15:19 20° W 17:17:55 10° NW visible
24 Jan 8.8 04:37:47 10° NE 04:40:52 27° E 04:43:59 10° SSE visible
24 Jan 8.0 06:11:34 10° NNW 06:14:05 18° WNW 06:16:35 10° WSW visible
25 Jan 9.9 04:13:21 10° ENE 04:15:13 14° E 04:17:06 10° ESE visible
25 Jan 7.1 05:45:26 10° N 05:48:44 36° WNW 05:52:04 10° SW visible
26 Jan 6.4 05:19:43 10° N 05:23:18 80° WNW 05:26:56 10° SSW visible
26 Jan 10.0 17:30:51 10° WSW 17:32:18 12° W 17:33:47 10° WNW visible
27 Jan 7.7 04:54:20 10° NNE 04:57:48 45° E 05:01:18 10° S visible
27 Jan 9.2 17:03:45 10° SSW 17:06:37 25° W 17:09:32 10° NW visible
28 Jan 9.2 04:29:20 10° NE 04:32:12 22° E 04:35:05 10° SSE visible
28 Jan 7.7 06:02:37 10° NNW 06:05:30 23° WNW 06:08:25 10° WSW visible
29 Jan 10.2 04:05:32 10° ENE 04:06:31 11° E 04:07:31 10° ESE visible
29 Jan 6.8 05:36:39 10° N 05:40:08 46° WNW 05:43:39 10° SSW visible
30 Jan 6.7 05:11:03 10° NNE 05:14:41 79° ESE 05:18:20 10° S visible
30 Jan 9.8 17:21:26 10° SW 17:23:34 16° W 17:25:44 10° NW visible
